OBJECT N, 61906

Orbit data source: Space-Track

You're viewing an Uncataloged Satellite

Recently launched and/or uncataloged satellites may have evolving metadata. Metadata may include but not limited to: Owner, Maufacturer, Bus, Motor, and Mission.

OBJECT N, 61906 is a satellite owned by Zhongke Xiguang (CN) in SSO that was launched on Mon, 11 Nov 2024 UTC via a LIJIAN-1 launch vehicle from the Jiuquan Satellite Launch Center, China (JSC). Unknown objects in Earth's orbit typically refer to objects detected orbiting the Earth but have not yet been identified or cataloged. These objects could be anything from previously untracked satellites, spent rocket stages, debris from satellite collisions, or even natural meteoroids temporarily captured by Earth's gravity.

Loading next visibility...
OBJECT N details
Identifier
61906, 2024-205N
Orbit
SSO
Last TLE update11 hours ago
Origin
Flag of CNZhongke Xiguang (CN / PRC)
ManufacturerXIOPM/ZXHK
MissionOperational spacecraft
Bus & MotorMN100?, Unknown motor
Mass~75 kg wet, ~75 kg dry
Launch date (UTC)
2024-11-11 (1 month ago)
Launch vehicle
LIJIAN-1
Launch site
Jiuquan Satellite Launch Center, China (JSC)
Object typeUnknown
Shape & HBRUnknown
Radar Cross SectionMedium (>0.1 m² and <1 m²)

Expand to show TLE details & history

TLE from 11 hours ago
0 OBJECT N
1 61906U 24205N   24348.50325924  .00013972  00000-0  72848-3 0  9990
2 61906  97.4742  60.1546 0014665 174.5547 185.5848 15.15985125  4863
Epoch: 2024-12-13T12:04Z
Definitive object data (Epoch: 2024-12-13T12:04:41.598Z)
Latitude-0.00001°
Longitude156.31297°
Altitude531.14 km
Speed7.592 km/s
True Right ascension04h 00m 37s
True Declination0° 00' 00"
Sunlit
Object was in full shadow at TLE epoch
Visualization TLE readout
Latitude-39.30184°
Longitude162.89158°
Altitude541.561 km
Speed7.585 km/s
Apparent Right ascension06h 51m 09s
Apparent Declination-46° 13' 00"
Sunlit
Object is in full shadow
Visualization observer readout
Local Sidereal Time21:31:33
Azimuth115.66° SE
Elevation-60.366°
Doppler factor1
Orbital elements
Apogee altitude525.072 km
Perigee altitude504.855 km
Semi-major axis6,893.101 km
Eccentricity0.0014665
Inclination97.4742°
RAAN60.1546°
Arg. of periapsis174.5547°
True anomaly185.56848°
Mean anomaly185.5848°
Eccentric anomaly185.57663°
Mean motion3.79246 °/min
BSTAR0.00072848
Orbital period94.93 mins
Loading maneuver chart data...
Loading historical data...
Loading historical data...
Loading historical data...
Loading historical data...
Loading historical data...
Loading historical data...
Loading historical data...

OBJECT N Visibility forecast

Observer location: undefined°, undefined

Span
Click to sort rows by Start time (UTC) header in descending order
Start Az.
Max El. time (UTC)
Max El. Az.
Max El.
End time (UTC)
End Az.
4 mins2024-12-14 04:04:33.430Z104.995° ESE2024-12-14 04:06:33.430Z70.686° E16.393°2024-12-14 04:08:33.430Z34.489° NE
5 mins2024-12-14 05:38:33.430Z213.971° SW2024-12-14 05:40:33.430Z263.093° W26.993°2024-12-14 05:43:33.430Z323.355° NNW
4 mins2024-12-14 17:11:33.430Z66.388° ENE2024-12-14 17:12:33.430Z90.632° ESE22.231°2024-12-14 17:15:33.430Z149.359° SSE
|